This is the latest recevied weather packets stored in our database for station/object AC5CM. If no packets are shown the sender has not sent any weather packets the latest 10 day(s).
| Time | Temp. | Humidity | Pressure | Rain* | Wind** | Luminosity | Snow |
|---|---|---|---|---|---|---|---|
| 1778019457 | 28.33° C | 76% | 1008.1 hPa | 0 mm | - | - | - |
| 1778019153 | 28.33° C | 75% | 1008.2 hPa | 0 mm | - | - | - |
| 1778018850 | 28.33° C | 75% | 1008.3 hPa | 0 mm | - | - | - |
| 1778018548 | 28.89° C | 73% | 1008.2 hPa | 0 mm | - | - | - |
| 1778018246 | 28.33° C | 75% | 1008 hPa | 0 mm | - | - | - |
| 1778017943 | 28.33° C | 75% | 1008.1 hPa | 0 mm | - | - | - |
| 1778017641 | 28.33° C | 76% | 1008.3 hPa | 0 mm | - | - | - |
| 1778017338 | 28.33° C | 76% | 1008.4 hPa | 0 mm | - | - | - |
| 1778017035 | 28.33° C | 76% | 1008.6 hPa | 0 mm | - | - | - |
| 1778016733 | 28.33° C | 76% | 1008.5 hPa | 0 mm | - | - | - |
| 1778016428 | 28.33° C | 76% | 1008.6 hPa | 0 mm | - | - | - |
| 1778016126 | 28.33° C | 76% | 1008.7 hPa | 0 mm | - | - | - |
| 1778015823 | 27.78° C | 76% | 1008.6 hPa | 0 mm | - | - | - |
| 1778015520 | 28.33° C | 75% | 1008.6 hPa | 0 mm | - | - | - |
| 1778015216 | 28.33° C | 74% | 1008.7 hPa | 0 mm | - | - | - |
| 1778014913 | 28.33° C | 74% | 1008.8 hPa | 0 mm | - | - | - |
| 1778014611 | 28.89° C | 73% | 1009.1 hPa | 0 mm | - | - | - |
| 1778014309 | 28.89° C | 72% | 1009.1 hPa | 0 mm | - | - | - |
| 1778014005 | 28.89° C | 73% | 1009.1 hPa | 0 mm | - | - | - |
| 1778013703 | 28.89° C | 73% | 1009.2 hPa | 0 mm | - | - | - |
| 1778013400 | 28.89° C | 73% | 1009.3 hPa | 0 mm | - | - | - |
| 1778013097 | 29.44° C | 72% | 1009.4 hPa | 0 mm | - | - | - |
| 1778012792 | 29.44° C | 72% | 1009.3 hPa | 0 mm | - | - | - |
| 1778012488 | 28.89° C | 73% | 1009.7 hPa | 0 mm | - | - | - |
| 1778012185 | 28.89° C | 74% | 1009.4 hPa | 0 mm | - | - | - |
* Rain latest hour (hover to see other rain measurements)
** Current wind speed in m/s (hover to see current wind gust speed)